Temp
65 64 64 64 64 64 64 65 66 66 67 67 68 68 67 66 66 67 67 66 67 66
64 64 64 65 66 65 65 66 67 67 66 67 68 68 67 66 66 67 66 66 67 66
64 64 64 65 65 65 65 66 66 66 67 67 67 67 66 66 66 66 66 67 67 66
64 64 64 64 64 64 65 65 65 66 66 66 66 66 65 65 66 66 66 66 66 65
64 65 64 64 65 64 64 65 65 66 66 67 67 66 65 66 67 66 66 66 65 64
64 64 64 64 64 64 64 64 64 64 65 64 64 64 63 64 63 64 65 65 65 64
63 64 64 65 64 64 64 63 63 63 63 64 63 63 63 62 62 62 62 62 63 63
65 65 65 65 64 63 63 62 62 62 62 63 64 64 63 63 62 61 60 60 61 62
66 65 64 64 63 63 61 57 59 59 62 62 64 59 61 62 60 59 58 57 58 59
65 64 64 63 62 60 57 54 53 56 58 59 60 57 58 60 57 58 58 57 57 59
65 64 62 59 57 56 56 51 51 51 52 57 56 55 55 56 52 50 50 50 52 53
65 62 59 55 53 53 52 48 48 52 54 56 55 53 54 53 51 49 48 50 52 51
64 60 56 53 51 50 50 48 50 52 53 55 55 52 52 54 52 50 50 50 50 54
58 55 54 52 51 50 48 48 48 49 51 51 52 52 50 52 54 54 52 51 50 51
MSLP
1014.05 1014.04 1014.07 1013.28 1012.87 1012.77 1012.23 1011.90 1011.75 1011.74 1011.87 1012.09 1012.36 1012.68 1013.05 1013.39 1013.74 1013.98 1014.21 1014.57 1014.64 1014.84
1014.11 1014.02 1013.92 1013.33 1013.00 1012.74 1012.30 1011.91 1011.61 1011.60 1011.91 1012.22 1012.38 1012.55 1012.85 1013.12 1013.43 1013.72 1014.00 1014.27 1014.42 1014.85
1013.97 1014.00 1013.83 1013.59 1013.30 1013.04 1012.60 1012.07 1011.66 1011.60 1011.72 1012.05 1012.31 1012.53 1012.72 1013.03 1013.37 1013.63 1013.85 1013.94 1014.36 1014.83
1014.08 1014.01 1013.97 1013.89 1013.68 1013.41 1013.01 1012.58 1012.19 1012.04 1011.84 1012.06 1012.38 1012.47 1012.66 1012.92 1013.16 1013.52 1013.76 1013.96 1014.32 1014.80
1014.20 1014.11 1014.10 1014.12 1014.04 1013.76 1013.52 1013.16 1012.78 1012.53 1012.42 1012.28 1012.34 1012.68 1012.91 1013.08 1013.37 1013.55 1013.74 1013.90 1014.43 1014.97
1014.26 1014.30 1014.27 1014.44 1014.41 1014.22 1014.10 1013.78 1013.39 1013.23 1013.20 1013.06 1013.00 1013.18 1013.47 1013.67 1013.92 1014.09 1014.28 1014.49 1014.63 1015.13
1014.16 1014.31 1014.37 1014.50 1014.65 1014.69 1014.70 1014.57 1014.32 1014.10 1013.98 1013.89 1013.89 1013.92 1014.13 1014.42 1014.68 1014.88 1015.10 1015.29 1015.52 1015.68
1013.93 1014.19 1014.39 1014.57 1014.92 1015.18 1015.36 1015.30 1015.19 1015.03 1014.69 1014.54 1014.62 1014.84 1014.88 1015.10 1015.41 1015.67 1015.95 1016.16 1016.32 1016.46
1013.78 1014.16 1014.62 1014.89 1015.26 1015.64 1015.95 1016.00 1015.92 1015.93 1015.68 1015.44 1015.59 1015.68 1015.70 1015.87 1016.28 1016.65 1016.95 1017.22 1017.42 1017.50
1013.90 1014.32 1014.83 1015.29 1015.72 1016.15 1016.44 1016.56 1016.84 1016.71 1016.51 1016.49 1016.54 1016.48 1016.52 1016.75 1017.15 1017.51 1017.82 1018.07 1018.19 1018.24
1014.36 1014.88 1015.26 1015.89 1016.41 1016.73 1017.04 1017.33 1017.52 1017.55 1017.41 1017.34 1017.59 1017.32 1017.35 1017.63 1018.19 1018.71 1018.97 1019.01 1018.93 1018.95
1014.22 1015.05 1015.79 1016.64 1017.22 1017.47 1017.75 1018.15 1018.11 1018.04 1017.93 1017.96 1018.45 1018.40 1018.33 1018.46 1019.03 1019.51 1019.89 1019.80 1019.74 1019.75
1014.51 1015.19 1016.11 1016.88 1017.68 1018.15 1018.38 1018.63 1018.62 1018.60 1018.73 1018.75 1018.82 1019.07 1019.06 1019.12 1019.48 1019.89 1020.46 1020.65 1020.70 1020.65
1015.42 1016.12 1016.71 1017.33 1018.09 1018.55 1018.86 1019.11 1019.30 1019.46 1019.52 1019.61 1019.80 1019.76 1019.81 1019.90 1019.90 1020.25 1020.71 1021.03 1021.44 1021.55
Wind_Speed
2 3 4 3 3 4 2 1 1 2 3 5 5 5 5 3 4 5 4 6 4 3
2 3 4 5 4 3 4 3 1 4 3 4 5 6 5 4 4 4 5 6 6 4
1 1 3 4 6 6 5 6 5 1 2 3 3 3 4 3 3 5 4 4 7 5
2 2 4 4 5 5 5 5 6 5 5 3 3 3 3 3 3 5 6 6 7 7
2 1 4 5 5 5 5 5 6 7 7 7 7 5 5 6 5 6 8 8 8 8
2 1 3 4 4 5 5 6 6 7 8 8 8 9 8 8 7 6 6 5 7 6
4 3 3 4 5 5 5 6 7 8 8 9 8 9 9 10 9 9 8 8 6 5
4 4 5 5 6 5 7 7 7 7 8 8 8 6 9 9 8 8 8 8 8 7
6 6 5 6 6 7 7 7 7 7 7 8 6 10 12 10 8 7 7 7 7 7
5 8 6 7 8 7 7 6 7 6 7 7 7 12 13 14 7 8 7 6 4 5
7 7 8 8 7 7 6 6 5 6 6 6 7 13 14 17 10 9 9 7 5 6
10 9 9 8 6 6 8 6 5 5 7 9 8 10 12 12 9 10 9 9 8 7
9 10 10 9 7 5 6 6 4 9 8 9 9 9 10 9 6 10 7 8 9 18
9 9 10 9 7 7 7 7 8 9 9 9 8 7 10 8 7 7 7 7 7 6
Wind_Direction
334 346 293 314 337 318 299 281 349 213 192 187 182 174 176 174 190 186 197 190 184 170
33 5 342 3 360 335 345 328 18 147 180 200 190 182 172 188 204 186 192 189 153 127
146 351 11 15 13 0 359 6 28 43 161 181 207 187 172 179 173 179 179 156 146 125
210 82 34 33 18 10 11 13 32 26 80 99 203 180 170 158 159 147 149 136 127 116
206 63 53 41 17 19 23 22 32 38 54 68 82 90 99 112 115 134 137 129 130 127
203 134 90 72 46 41 27 26 37 56 57 65 69 76 71 78 75 74 81 112 134 142
214 187 125 102 76 54 36 34 37 51 62 61 66 78 80 77 72 68 62 60 67 82
193 166 132 109 88 67 49 42 32 43 50 54 64 66 78 77 75 71 62 50 61 58
152 134 120 108 95 77 65 45 50 39 46 54 64 75 78 81 78 72 71 71 63 62
142 122 117 107 101 90 81 74 56 43 45 49 64 71 75 77 72 73 69 79 93 94
115 121 107 97 98 93 84 63 64 51 49 56 55 80 80 79 70 59 46 38 51 77
137 130 117 99 89 84 90 71 60 58 63 87 70 64 81 84 75 69 52 45 57 61
132 126 118 112 103 82 81 79 64 71 54 70 95 71 85 97 102 89 78 60 59 66
90 103 110 105 99 101 95 91 74 73 61 58 43 61 74 66 89 97 91 82 68 59